sat.trackr.live / text

‹ back to catalog

WILDFIRE 2

NORAD 57767 · 2023-133L

PAYLOAD ACTIVE UNKNOWN

§ Identity

Operator
Country
US
Launch date
2023-09-02
Launch site
AFWTR
Launch vehicle
Mass (kg)
RCS (m²)

External: N2YO · Heavens-Above · Gunter

§ Orbital elements

Epoch: 2026-09-21T17:58:06.720960Z

Period
103.93 min
Inclination
80.9924°
Eccentricity
0.0006312
Mean motion
13.85503366 rev/d
Perigee alt
939.8 km
Apogee alt
949.1 km
Semi-major
7,322.6 km
B*
4.0158e-5
RAAN
274.6779°
Arg perigee
114.4612°
Mean anomaly
245.7203°
Rev number
15,437

§ Raw data

WILDFIRE 21 57767U 23133L   26264.74868890  .00000057  00000+0  40158-4 0  99972 57767  80.9924 274.6779 0006312 114.4612 245.7203 13.85503366154372

JSON: /api/v1/satellites/57767 · /tle

For live sub-satellite position, see the globe view (requires WebGL).

§ Visibility from observer

Set your observer location to see the next 7 days of passes ≥ 10°. The values pass through the URL so the page stays shareable.

No JS? Fill the form by hand. The geolocation button needs JavaScript.